Temp
13 14 16 15 16 16 17 17 17 17 18 18 18 19 19 20 20 20 22 21 22 22 23 23 24 25 25 26 26 26 24 24 27 29 28 26 26 27 25 26 26 25 25 24 24
14 13 15 16 16 16 16 16 17 17 17 18 18 18 19 19 19 22 21 21 22 22 23 24 25 25 25 26 25 24 23 26 27 26 26 26 27 24 26 25 25 24 21 23 23
12 15 14 15 15 16 16 16 16 17 17 17 18 18 19 20 21 22 21 21 22 22 22 24 25 26 25 27 26 26 25 26 26 24 25 27 27 28 25 25 25 24 21 21 22
11 13 15 15 15 16 16 16 16 17 17 18 18 18 19 19 22 20 21 21 22 22 22 24 25 25 25 24 26 25 27 26 25 23 25 26 26 26 24 26 26 24 23 20 19
11 12 13 15 15 15 16 16 16 17 17 18 19 19 19 21 21 20 20 21 21 21 23 24 24 24 25 26 25 24 26 25 23 23 23 23 23 24 24 24 25 24 23 20 19
12 12 13 13 15 15 16 16 16 17 17 18 18 19 19 21 19 19 20 20 21 21 23 24 25 25 25 26 24 24 25 25 23 23 24 22 23 24 24 23 24 22 22 22 20
13 12 13 13 13 15 15 16 16 17 17 17 18 18 20 20 19 19 20 20 20 22 23 23 24 24 25 24 23 24 24 23 23 23 23 23 21 22 23 24 24 24 21 22 21
12 12 13 13 13 14 15 15 16 17 17 18 18 18 20 19 19 19 20 20 20 21 22 22 23 23 22 23 24 23 24 23 24 22 22 22 21 25 25 24 22 23 22 22 22
12 12 12 13 13 14 14 15 16 16 17 18 18 18 20 19 19 19 20 21 20 20 21 21 23 23 22 22 22 23 21 22 22 22 22 21 22 25 24 24 23 22 22 22 22
12 12 12 13 13 13 14 15 16 16 17 17 17 18 18 19 18 18 19 20 21 20 21 22 21 20 21 21 20 22 22 24 25 21 21 21 19 21 22 22 21 21 22 22 22
11 11 12 12 13 13 15 15 16 16 17 20 19 19 19 17 17 18 19 20 21 21 20 21 20 19 21 22 23 24 23 22 24 21 22 20 20 22 23 22 22 22 22 21 22
11 11 11 13 13 13 14 16 14 14 17 19 18 17 18 18 18 18 19 19 20 19 20 19 18 22 23 23 23 23 22 21 22 20 21 20 20 21 22 22 23 22 22 22 23
10 10 11 12 12 13 14 15 14 14 16 17 18 18 18 17 20 18 18 20 20 19 20 19 22 22 22 21 21 21 21 21 21 21 19 19 18 19 22 22 23 22 23 22 22
9 10 11 12 12 13 14 14 15 14 16 18 16 17 17 18 18 19 19 20 20 19 20 20 21 22 20 21 20 20 21 21 21 20 18 22 16 21 22 23 23 22 20 20 21
8 9 10 11 11 13 13 14 15 14 14 18 15 15 17 18 17 16 17 19 19 19 20 20 19 19 19 20 21 20 20 21 21 19 18 19 16 19 21 23 23 24 22 22 22
8 9 10 10 11 11 12 13 14 13 14 16 15 15 15 16 15 15 16 18 18 20 20 19 18 20 20 17 19 19 20 20 20 18 15 19 18 19 21 24 26 26 26 26 24
7 8 9 9 10 10 11 11 12 13 18 15 15 16 16 16 16 16 15 15 17 17 17 18 18 18 18 17 18 19 19 16 15 14 15 20 19 21 23 24 24 24 22 22 23
7 8 8 9 10 10 11 11 12 14 17 16 16 16 16 17 17 16 15 15 16 18 18 17 17 16 16 18 17 16 18 15 14 15 16 16 16 18 23 24 24 23 20 19 21
6 7 8 9 10 10 11 10 12 15 18 16 16 16 16 16 16 16 16 17 17 17 17 18 19 18 17 19 19 17 16 19 16 9 12 16 19 21 21 22 22 20 20 19 19
6 8 9 9 9 10 10 11 13 15 16 17 16 17 16 16 15 15 16 18 17 18 18 19 17 17 15 17 17 17 18 16 14 13 13 16 17 19 20 22 21 20 19 18 17
6 7 9 8 9 9 10 12 14 14 15 15 16 15 16 17 16 16 17 16 18 17 18 18 16 14 15 15 16 15 16 17 17 15 13 15 17 22 20 20 19 19 19 18 17
7 7 7 8 9 10 10 12 13 15 15 15 15 16 16 15 15 16 17 16 17 16 16 17 16 13 15 17 15 17 17 17 14 15 13 14 18 21 19 20 20 19 19 19 18
7 8 6 7 8 9 11 12 13 14 14 14 14 15 16 14 13 14 14 12 14 13 12 14 14 10 13 16 15 15 16 17 17 14 15 14 17 19 19 20 20 21 20 18 18
6 6 7 6 8 9 11 11 11 13 13 14 14 15 14 14 15 15 14 12 12 12 11 13 11 12 13 16 15 14 13 15 16 13 15 15 17 19 19 18 19 18 17 16 17
4 7 8 6 6 7 9 11 11 11 12 13 13 13 14 13 13 13 13 11 12 12 12 10 10 11 12 12 12 12 12 13 13 13 15 16 16 18 19 18 18 19 18 18 18
4 5 7 7 8 7 8 9 10 11 11 11 11 12 13 12 13 13 13 12 13 10 12 9 9 10 9 11 12 12 12 13 13 14 14 15 15 18 18 18 18 18 18 17 17
4 3 4 7 7 8 7 8 10 11 11 12 12 11 11 12 11 10 9 9 9 8 8 8 9 9 9 10 9 9 10 12 13 14 14 14 16 17 16 17 17 17 17 17 17
Height
783 784 785 786 787 786 787 787 787 788 788 787 789 789 788 787 786 785 785 786 786 786 787 789 790 790 790 791 792 792 812 818 802 796 797 794 799 796 795 800 802 804 807 810 812
784 786 784 785 786 787 787 788 788 789 791 790 789 789 789 787 784 785 785 785 785 786 788 788 789 790 791 791 794 801 813 805 792 791 798 796 797 801 802 804 806 806 809 811 813
783 784 785 785 786 786 787 788 790 790 791 788 790 788 787 785 783 782 783 785 785 786 788 788 788 789 793 789 794 795 807 795 793 795 794 795 797 791 802 807 800 804 806 810 813
784 783 784 783 785 786 786 787 789 788 789 789 788 787 785 786 793 782 784 785 785 787 789 788 788 793 795 801 790 804 792 792 796 799 799 799 795 797 799 797 791 793 795 803 809
783 784 784 784 785 786 787 788 789 788 789 787 786 786 785 784 782 784 784 785 785 787 789 788 790 791 796 792 794 803 793 795 798 800 801 800 803 802 798 792 790 793 796 802 806
781 784 784 785 785 787 787 788 788 789 788 788 786 785 785 789 783 783 787 785 786 788 788 788 789 787 792 791 799 796 796 794 798 800 800 806 803 800 791 788 790 793 796 798 801
779 781 782 784 787 787 786 787 786 787 787 787 784 783 784 784 782 783 788 786 785 787 788 788 790 790 788 797 796 798 805 800 800 800 802 802 810 804 788 787 789 789 793 794 796
779 780 781 784 784 783 784 785 785 785 785 785 783 784 783 781 781 784 786 786 786 787 787 790 790 791 796 795 799 805 802 814 793 801 803 806 816 785 781 784 790 788 790 790 790
779 781 783 783 783 782 783 783 782 783 783 783 783 786 781 781 782 783 787 787 787 789 789 790 790 795 798 805 812 806 822 812 808 799 803 811 809 785 783 784 788 787 786 785 784
779 781 783 782 783 782 781 780 780 782 782 783 785 786 781 782 783 784 787 788 786 790 791 792 795 804 805 811 830 815 814 804 800 806 805 812 813 798 787 787 788 785 781 780 778
779 782 782 783 784 783 780 780 784 787 782 778 779 780 780 784 784 785 786 788 785 792 799 795 806 814 804 800 796 800 805 811 797 802 804 809 806 796 786 781 781 778 775 774 772
778 780 782 781 783 784 782 782 785 787 780 775 777 780 782 780 784 784 787 788 788 800 794 805 811 794 790 795 796 801 811 814 802 805 807 808 804 790 784 777 770 771 769 766 763
777 779 780 779 783 784 783 785 785 784 783 776 775 775 777 781 780 782 784 782 788 796 796 803 789 788 794 801 804 808 813 812 812 805 805 809 809 791 771 765 763 762 758 758 757
776 778 777 776 783 780 784 785 784 784 786 775 776 772 775 777 782 778 780 781 788 794 792 797 787 793 799 803 804 818 800 803 807 817 831 801 831 789 775 767 763 760 757 753 752
778 777 776 779 779 780 782 782 783 783 802 769 777 776 774 778 779 783 782 783 788 788 786 794 795 799 802 799 797 807 803 804 805 818 821 813 832 793 774 773 763 753 749 748 745
777 778 778 778 779 780 781 782 785 798 790 771 773 775 779 778 781 784 784 783 782 783 785 794 793 792 792 800 798 801 807 810 811 820 839 812 817 791 779 764 751 744 743 742 744
779 780 780 778 778 779 780 783 791 784 760 772 772 770 772 777 781 782 787 790 792 802 803 796 797 794 794 806 804 803 814 838 846 853 839 798 806 778 758 750 750 750 751 748 746
780 779 779 779 779 780 782 787 784 769 756 761 767 770 773 771 776 780 786 789 785 785 792 800 805 796 795 794 806 813 810 834 847 843 827 812 810 786 750 745 745 747 750 748 749
779 778 778 779 779 781 782 790 776 761 751 761 768 772 773 773 776 781 783 781 777 783 792 789 787 779 785 782 788 807 815 797 818 849 844 807 780 759 752 752 750 751 750 751 750
780 779 779 779 779 782 782 776 772 764 760 758 761 759 767 773 778 781 778 767 775 771 773 777 793 784 792 787 789 794 792 817 822 842 844 805 799 782 764 756 755 754 755 754 753
780 779 777 777 779 781 775 770 764 767 765 767 762 766 766 766 771 776 769 772 768 772 771 777 788 800 793 797 794 802 803 798 799 811 829 818 791 747 760 759 759 758 757 755 755
778 779 776 777 780 773 771 766 766 763 765 766 767 765 766 770 772 771 772 773 771 774 779 778 786 802 792 781 786 785 786 791 810 809 814 809 777 745 752 753 752 756 755 752 750
777 776 777 777 773 769 766 765 764 763 764 766 768 767 763 772 782 777 778 786 781 785 792 788 792 817 802 789 791 791 785 785 786 799 803 806 779 752 755 752 751 751 751 752 749
778 777 776 779 769 766 766 765 764 761 765 763 764 766 769 772 769 773 781 789 792 792 793 787 799 797 796 783 790 797 798 790 791 805 787 791 771 755 756 762 755 754 753 751 750
778 768 763 773 772 772 768 757 761 763 764 764 764 764 766 773 772 775 779 791 791 790 792 800 803 803 796 797 795 801 804 799 801 796 795 776 784 752 755 761 757 752 750 748 746
774 771 764 764 760 769 769 761 759 759 762 765 766 764 767 770 769 774 775 784 781 796 790 804 810 803 810 799 798 797 791 790 788 784 785 778 773 756 752 752 750 750 749 746 743
772 772 772 762 763 764 763 759 757 759 757 758 763 770 771 769 772 779 783 787 792 799 807 810 808 807 805 801 805 805 787 782 778 772 773 777 762 756 753 749 745 751 750 742 739
Wind_Speed
8 8 7 6 4 1 1 1 2 3 3 4 5 5 6 6 2 1 2 2 2 4 5 2 2 2 2 2 2 2 2 4 6 3 2 7 5 1 3 5 1 5 3 3 23
10 8 8 6 5 4 2 1 2 2 4 4 6 7 7 5 1 6 2 3 4 4 4 6 5 5 3 2 2 2 3 5 7 8 6 6 5 9 3 5 4 5 8 6 20
8 9 8 7 6 5 4 2 1 1 3 4 6 7 7 2 3 3 4 5 4 4 2 4 7 4 5 1 4 4 3 5 7 6 7 4 2 2 5 5 8 10 13 11 15
9 8 7 6 5 3 2 1 0 2 4 5 6 9 5 2 0 1 4 5 4 4 2 4 4 3 2 5 4 3 5 3 3 4 3 2 5 4 8 5 5 6 13 15 11
8 7 7 5 5 4 3 1 2 2 3 4 6 8 0 4 3 1 2 4 5 5 5 5 5 5 3 4 4 3 2 3 7 4 3 4 6 6 7 10 6 6 10 12 11
7 6 6 4 5 5 4 3 3 4 3 4 5 4 2 3 4 2 2 5 4 4 4 3 3 4 3 2 3 5 5 1 6 5 3 2 6 2 7 11 9 9 8 8 11
6 5 5 5 5 5 4 4 5 5 5 6 6 4 2 0 3 4 4 4 5 2 2 1 4 2 2 1 4 1 3 6 7 5 2 3 7 11 10 6 6 7 10 10 10
6 3 2 3 3 2 1 3 5 6 5 5 5 3 2 3 5 4 4 3 4 4 3 3 2 3 3 4 3 4 2 2 3 8 4 3 6 6 1 6 10 9 9 10 12
5 4 2 1 2 1 2 4 5 4 4 3 3 3 1 4 5 4 5 3 6 5 4 4 1 2 1 3 3 5 4 6 4 7 4 6 5 3 3 1 6 7 9 9 10
4 4 3 1 2 4 6 5 1 1 1 1 2 2 2 2 4 5 4 7 2 5 3 3 3 3 3 4 5 6 4 6 4 6 1 5 11 12 10 8 10 10 10 9 9
10 7 3 1 3 5 7 4 2 2 4 3 2 3 3 3 4 4 5 5 4 3 5 3 4 6 9 10 7 3 5 8 5 3 2 7 11 10 10 10 9 10 10 10 12
6 10 8 4 3 3 5 3 2 2 3 6 2 0 1 1 3 6 7 7 5 6 6 3 6 8 6 3 3 1 6 8 8 6 2 7 12 12 10 13 12 11 11 11 9
3 2 9 7 7 6 3 1 1 3 3 2 4 4 3 6 3 10 8 3 4 7 8 6 2 9 5 3 3 6 7 7 8 2 6 4 8 10 10 17 12 11 12 10 11
6 2 3 5 5 5 2 6 2 1 3 7 6 4 5 4 4 4 14 3 3 9 8 7 7 2 4 5 7 6 3 8 5 5 3 2 6 7 10 9 8 11 10 11 9
6 5 2 13 3 6 4 10 4 1 3 5 4 2 2 6 8 1 3 3 7 6 7 4 6 7 5 5 7 3 4 3 1 3 5 4 4 7 9 7 9 9 10 10 8
7 6 1 6 4 3 5 9 3 4 7 3 4 6 5 2 3 3 3 2 2 3 1 2 1 2 3 4 3 7 4 2 1 2 6 9 8 4 7 4 2 1 4 5 6
7 5 3 2 1 5 11 3 3 5 3 6 4 6 8 6 6 5 6 7 7 5 6 6 6 3 1 5 5 2 5 1 2 0 7 3 3 9 7 8 4 5 8 6 3
8 6 3 2 3 6 5 3 4 8 5 3 3 6 6 7 6 7 7 6 9 5 0 9 6 11 7 8 8 8 7 5 7 4 5 4 9 6 3 2 2 4 8 7 5
7 4 3 1 4 9 2 2 3 3 2 7 8 6 5 4 1 6 5 5 8 13 8 5 8 4 6 2 8 6 7 7 4 2 3 5 10 12 7 6 5 9 8 9 8
4 3 3 4 6 4 3 7 6 3 4 4 5 5 8 11 7 7 8 3 7 8 11 2 3 2 3 3 4 3 1 2 2 3 5 7 7 11 10 14 9 6 6 7 7
3 2 5 5 8 1 6 6 5 7 3 2 4 3 3 8 6 5 1 3 3 3 4 4 4 0 4 6 7 2 4 3 2 5 5 5 7 5 6 5 6 7 6 5 5
2 2 1 10 4 3 8 5 4 5 7 6 3 6 4 5 1 1 2 2 5 3 4 1 2 5 6 2 3 3 6 10 4 4 3 5 16 2 1 3 4 5 4 3 5
2 1 2 6 6 9 5 9 10 6 8 8 6 6 2 5 3 3 1 7 10 6 2 2 1 3 7 3 2 4 4 6 8 2 13 7 13 7 5 4 3 1 4 4 6
2 3 2 3 6 4 11 11 11 3 5 7 5 10 8 9 6 2 5 3 2 5 3 5 2 5 5 4 5 3 9 5 5 5 14 14 24 24 16 11 14 11 8 9 8
2 3 5 4 7 9 7 5 13 10 7 5 5 12 9 7 10 10 4 4 7 9 4 3 4 4 14 13 12 7 9 12 12 13 15 23 18 30 19 13 15 14 9 9 9
2 2 3 3 6 12 9 8 12 16 8 10 11 7 10 12 8 5 9 8 2 6 4 6 2 2 5 7 11 17 16 14 15 17 14 22 20 23 20 16 18 15 12 10 9
10 2 3 4 3 8 16 13 5 6 7 9 11 9 7 9 3 7 7 6 5 6 3 3 3 2 5 5 3 5 16 16 17 19 18 20 25 19 20 20 18 13 14 20 19
Wind_Direction
173 176 174 171 171 154 125 55 12 359 346 348 327 319 320 318 312 139 229 184 188 165 149 149 185 170 178 130 282 301 302 258 260 194 53 114 172 314 9 112 50 138 61 344 150
175 174 166 170 163 154 138 79 30 360 344 344 330 322 320 302 176 232 225 214 195 157 137 197 186 179 193 181 201 223 192 259 16 31 23 131 236 144 155 187 186 138 90 113 143
178 177 168 166 168 163 154 143 118 19 340 353 331 329 322 269 246 95 191 204 186 166 158 262 314 194 243 130 200 217 243 33 52 33 27 352 200 327 176 247 196 196 167 173 163
178 172 181 167 165 162 149 158 301 16 349 351 346 335 321 171 117 117 177 187 177 172 199 195 221 206 226 189 193 290 239 43 49 50 3 307 325 235 212 222 96 48 147 158 173
184 178 172 186 185 180 189 232 298 331 331 353 354 340 316 231 72 55 161 164 156 155 208 219 227 224 233 218 113 235 247 87 82 106 279 8 271 250 265 233 185 96 115 165 181
187 197 182 197 212 215 210 235 262 284 309 328 351 1 264 242 98 112 166 142 141 183 193 259 303 332 337 2 169 6 355 232 149 192 179 243 275 146 243 237 249 158 182 195 185
192 216 211 215 217 232 250 267 281 292 306 316 343 18 255 337 122 146 154 152 156 199 180 38 337 317 25 104 66 351 279 214 222 206 172 195 281 237 226 183 215 236 189 198 216
152 169 196 223 235 205 259 280 277 277 288 313 338 2 283 149 138 119 129 84 114 135 106 164 166 77 353 128 191 236 210 236 10 136 153 138 266 299 49 190 203 212 238 213 215
159 149 165 155 314 332 348 318 297 272 267 302 22 292 134 120 120 162 157 156 119 106 123 136 189 124 185 203 216 200 261 211 158 179 130 182 284 35 97 154 271 258 245 232 214
180 178 182 141 321 343 338 339 337 145 254 253 255 317 128 126 119 140 164 152 121 147 116 188 185 189 224 191 209 224 218 244 231 180 184 241 258 282 278 235 223 232 243 248 230
207 221 197 218 327 354 359 359 208 186 226 241 90 84 118 115 124 184 159 158 152 228 172 221 200 196 212 224 252 355 321 330 346 132 159 236 261 259 267 267 254 250 235 226 229
216 241 230 220 286 335 10 312 34 326 283 216 183 304 186 200 150 162 177 177 173 190 196 134 224 233 229 29 7 173 286 289 288 115 157 276 275 268 258 258 237 237 247 242 245
122 197 220 210 248 276 353 7 26 5 259 194 185 194 163 167 241 171 180 224 179 204 186 207 92 217 130 144 177 234 236 258 256 174 213 287 270 259 248 241 258 250 250 250 245
40 37 197 202 278 238 218 223 236 356 248 197 209 210 138 184 231 93 197 155 189 214 178 229 230 162 161 213 178 254 296 240 288 338 255 46 288 294 308 289 231 241 235 239 243
31 18 343 175 186 182 211 204 242 259 239 106 130 94 45 184 138 276 350 111 197 204 157 216 176 169 179 176 189 212 17 45 14 290 292 206 263 260 232 260 256 259 257 247 236
6 13 30 164 189 176 184 162 70 117 219 148 125 162 140 187 74 122 158 323 345 254 214 72 310 281 172 58 34 124 92 87 136 207 275 176 201 226 223 237 258 234 346 39 74
334 350 28 57 46 130 154 97 179 182 185 167 186 164 196 162 151 166 163 179 171 156 204 184 190 124 82 88 37 189 150 253 304 146 239 78 284 235 311 305 209 280 291 310 115
336 311 317 255 127 141 143 86 231 184 187 80 117 166 182 138 192 196 158 192 233 261 259 199 219 150 188 203 170 199 185 172 203 198 265 354 241 254 178 12 307 300 289 297 241
344 349 307 218 197 169 233 158 217 254 155 146 150 166 186 148 186 173 231 216 201 200 195 201 225 87 151 165 160 193 206 234 318 60 9 229 272 291 265 227 275 283 289 296 328
342 313 247 213 165 135 251 206 202 187 314 207 201 217 177 179 186 189 190 194 219 211 211 240 268 3 55 69 305 167 253 126 246 185 227 261 271 247 311 299 293 315 17 3 1
265 222 132 166 141 184 223 217 209 144 311 352 267 135 316 148 192 184 282 76 327 76 195 145 190 107 117 197 175 133 228 229 161 187 183 255 257 178 130 98 62 41 3 338 337
266 218 187 161 181 195 224 183 268 261 182 221 291 302 228 132 150 1 223 60 23 133 155 147 300 216 207 130 17 240 236 207 185 242 230 230 264 95 314 89 83 336 8 353 343
206 242 83 217 207 217 209 215 237 217 219 204 214 230 278 152 160 202 189 360 354 43 22 341 276 56 328 279 56 250 210 239 238 272 252 230 259 118 100 74 79 337 245 261 226
275 189 143 216 271 255 217 218 225 182 270 239 228 227 223 247 238 213 160 167 77 96 51 75 5 200 212 98 42 353 334 298 271 241 259 248 266 274 274 301 304 306 278 263 255
233 230 182 195 232 235 268 210 218 221 201 212 237 237 218 226 221 229 148 152 196 168 105 75 200 236 268 290 311 281 261 275 262 278 253 262 258 275 280 290 303 295 295 304 314
215 224 292 276 195 198 225 235 231 213 167 215 238 214 231 238 220 187 204 191 187 43 160 142 239 236 268 261 266 273 263 247 250 251 249 264 267 264 286 287 284 288 292 298 302
189 298 324 224 223 202 212 215 254 225 248 213 215 228 255 241 58 60 81 66 113 134 128 152 159 174 262 101 353 280 245 248 248 244 246 254 262 274 278 282 290 304 297 293 297